Tracking 19283 objects as of 18-Nov-2018
HD Live streaming from Space Station
objects crossing your sky now

RAX-2

Track RAX-2 now!
10-day predictions
RAX-2 is classified as:


NORAD ID: 37853
Int'l Code: 2011-061D
Perigee: 446.1 km
Apogee: 683.8 km
Inclination: 101.7 °
Period: 95.8 minutes
Semi major axis: 6935 km
RCS: 0.0758 m2 (small)
Launch date: October 28, 2011
Source: United States (US)
Launch site: AIR FORCE WESTERN TEST RANGE (AFWTR)

Uplink (MHz):
Downlink (MHz): 437.345
Beacon (MHz): 437.345
Mode: 9600bps GMSK
Call sign:
Status: Inactive

aabbcc
Your satellite tracking list
Your tracking list is empty




NASA's NSSDC Master Catalog

Two Line Element Set (TLE):
1 37853U 11061D   18321.30814847  .00000835  00000-0  53836-4 0  9990
2 37853 101.7166  94.9676 0171383   0.6409 359.4991 15.02957228384436
Source of the keplerian elements: AFSPC